Temperature
6 6 6 6 6 6 6 6 7 7 7 7 6 6 6 5 5 5 5 5 5 6 6 6 7 7 8 8 9 9 9 10 10 10 10 10 10 10 10 10 10 10 10 10
5 5 5 5 6 6 6 6 6 6 6 6 5 5 5 5 4 4 4 4 5 5 6 6 6 7 7 8 8 8 8 9 9 9 9 9 9 9 9 9 9 9 9 9
6 5 6 6 6 6 6 6 6 6 6 6 5 5 4 4 4 4 4 4 4 5 5 5 6 6 7 7 7 7 8 8 8 8 8 8 8 8 8 8 8 8 8 8
6 6 6 7 5 5 5 5 5 5 5 5 5 4 3 3 3 3 3 3 4 4 4 5 5 6 6 6 7 7 7 7 7 7 7 7 7 7 7 7 7 7 7 7
5 6 7 6 5 5 5 5 5 5 5 4 3 4 4 3 2 2 2 3 3 4 4 4 5 5 6 6 6 6 6 6 7 7 7 7 7 7 7 7 7 7 6 6
5 6 7 7 5 4 5 5 4 4 4 3 3 5 5 2 2 2 2 3 3 3 4 4 4 4 5 5 5 6 6 6 6 6 6 6 6 6 6 6 6 6 6 5
5 5 7 6 4 4 5 6 4 3 3 2 3 3 2 2 1 1 2 2 2 3 3 3 4 4 4 4 5 5 5 5 5 5 5 5 5 5 5 5 5 5 4 4
5 5 6 4 4 5 5 3 3 2 2 1 1 1 1 1 1 1 1 2 2 2 2 3 3 3 4 4 4 4 4 4 4 5 4 4 4 4 4 4 4 4 4 4
6 6 5 3 4 3 3 2 2 2 1 1 1 1 0 0 1 1 1 1 1 1 2 2 2 3 3 3 3 4 4 4 4 4 4 4 4 4 3 3 3 3 4 4
4 4 3 3 2 2 2 2 1 1 1 1 0 0 -0 -0 0 0 0 1 1 1 1 1 2 2 2 2 3 3 3 3 3 3 3 3 3 3 3 3 3 3 3 3
3 4 2 2 2 2 2 1 1 1 1 0 -0 -0 -1 -1 -0 -0 0 0 0 0 0 1 1 1 1 2 2 2 2 2 2 2 2 3 2 2 2 3 3 3 3 3
5 5 4 3 3 2 1 1 1 0 0 -0 -1 -1 -1 -1 -1 -1 -0 -0 -0 -0 0 0 0 0 1 1 1 1 2 2 2 2 2 2 2 2 2 2 2 2 2 2
4 3 3 3 2 2 1 1 1 0 -0 -0 -1 -1 -1 -1 -1 -1 -1 -1 -1 -0 -0 -0 0 0 0 0 1 1 1 1 1 1 1 1 1 1 1 1 1 1 1 1
2 2 2 2 2 1 1 1 0 0 -0 -1 -1 -1 -1 -1 -1 -1 -1 -1 -1 -1 -1 -1 -0 -0 -0 -0 -0 0 0 0 0 0 0 0 1 1 1 1 1 1 1 1
2 2 2 2 1 1 1 0 -0 -0 -1 -1 -1 -2 -2 -2 -1 -1 -1 -1 -1 -1 -1 -1 -1 -1 -1 -1 -1 -1 -1 -1 -0 -0 -0 -0 -0 -0 -0 -0 -0 0 -0 -0
1 1 1 1 1 0 0 -0 -1 -1 -1 -1 -2 -2 -2 -2 -2 -2 -2 -2 -2 -2 -2 -2 -2 -2 -2 -2 -2 -2 -2 -1 -1 -1 -1 -1 -1 -1 -1 -1 -1 -1 -1 -1
1 -0 0 0 1 0 -0 -0 -1 -1 -1 -2 -2 -2 -2 -2 -2 -2 -2 -2 -2 -3 -3 -3 -2 -2 -2 -2 -2 -2 -2 -2 -2 -2 -2 -2 -2 -2 -2 -2 -2 -2 -2 -2
3 3 2 1 1 0 -0 -1 -1 -1 -1 -2 -2 -2 -3 -3 -3 -3 -3 -3 -3 -3 -3 -3 -3 -3 -3 -3 -3 -3 -3 -3 -3 -3 -3 -3 -3 -3 -3 -3 -3 -3 -3 -2
2 2 1 1 0 0 -0 -1 -1 -1 -2 -2 -2 -3 -3 -3 -3 -3 -3 -3 -3 -3 -3 -4 -4 -4 -4 -4 -4 -4 -4 -4 -4 -4 -4 -3 -3 -3 -3 -3 -3 -3 -3 -3
1 1 1 1 0 -0 -1 -1 -1 -2 -2 -2 -3 -3 -3 -3 -4 -4 -4 -4 -4 -4 -4 -4 -4 -4 -4 -4 -4 -4 -4 -4 -4 -4 -4 -4 -4 -4 -4 -4 -4 -4 -4 -4
1 1 0 0 -0 -0 -1 -1 -2 -2 -2 -3 -3 -3 -3 -4 -4 -4 -4 -4 -4 -4 -5 -5 -5 -5 -5 -5 -5 -5 -5 -5 -5 -5 -5 -5 -5 -5 -5 -5 -5 -5 -5 -5
1 0 0 -0 -0 -1 -1 -2 -2 -2 -3 -3 -3 -3 -4 -4 -4 -4 -4 -5 -5 -5 -5 -5 -5 -5 -5 -5 -5 -5 -5 -5 -5 -5 -5 -5 -5 -5 -5 -5 -5 -5 -5 -5
0 0 -0 -0 -1 -1 -1 -2 -2 -3 -3 -3 -3 -4 -4 -4 -4 -5 -5 -5 -5 -5 -5 -6 -6 -6 -6 -6 -6 -6 -6 -6 -6 -6 -6 -6 -6 -6 -6 -6 -6 -6 -6 -6
-0 -0 -1 -1 -1 -1 -2 -2 -2 -3 -3 -3 -4 -4 -4 -4 -4 -5 -5 -5 -5 -6 -6 -6 -6 -6 -6 -6 -6 -6 -6 -6 -6 -6 -6 -6 -6 -6 -6 -6 -6 -6 -6 -6
-0 -1 -1 -1 -1 -2 -2 -2 -3 -3 -3 -4 -4 -4 -4 -5 -5 -5 -5 -6 -6 -6 -6 -6 -6 -7 -7 -7 -7 -7 -7 -7 -7 -7 -7 -7 -7 -7 -7 -7 -7 -7 -7 -7
-1 -1 -1 -2 -2 -2 -2 -3 -3 -3 -4 -4 -4 -4 -5 -5 -5 -5 -6 -6 -6 -6 -7 -7 -7 -7 -7 -7 -7 -7 -7 -7 -7 -7 -7 -7 -7 -7 -7 -7 -7 -7 -7 -7
-1 -2 -2 -2 -2 -3 -3 -3 -3 -4 -4 -4 -4 -5 -5 -5 -6 -6 -6 -6 -7 -7 -7 -7 -7 -7 -7 -7 -7 -7 -7 -7 -8 -8 -8 -7 -7 -7 -7 -7 -7 -7 -7 -7
Wind_Speed
2 3 3 3 4 3 3 3 2 2 4 6 8 8 9 10 10 10 10 11 10 9 8 8 7 6 5 5 4 3 1 0 1 1 2 4 4 5 6 7 8 9 9 9
1 1 2 4 5 4 4 4 4 4 4 4 6 7 8 9 9 10 10 11 11 10 10 9 8 7 6 5 5 3 1 1 1 2 2 3 4 6 6 7 7 8 9 9
1 3 4 3 3 4 3 2 3 4 3 5 6 8 8 8 9 9 10 11 11 11 10 9 9 8 6 5 4 3 1 1 0 2 3 3 4 5 6 7 7 7 8 8
1 2 3 1 1 2 3 3 3 3 4 5 6 7 6 6 8 9 11 11 11 10 10 9 9 8 6 4 3 2 1 0 1 2 3 4 4 5 5 6 7 7 7 8
1 2 4 2 3 2 3 4 3 4 5 5 6 5 3 6 9 10 10 10 10 10 9 9 9 8 6 5 3 2 2 1 1 2 4 5 5 5 5 6 6 6 7 8
2 3 4 2 4 2 2 4 3 2 3 4 5 4 4 8 10 10 10 9 9 9 9 8 8 7 6 5 4 3 3 2 1 2 4 5 5 5 4 5 5 5 6 6
5 4 5 2 4 4 4 1 3 2 3 3 4 5 7 9 9 9 9 9 9 8 7 8 8 6 5 5 5 5 3 2 1 2 3 4 4 5 5 5 5 5 5 5
6 6 5 6 6 6 2 2 2 2 3 5 6 7 7 8 8 9 9 9 9 8 8 7 7 6 6 5 6 4 3 1 1 2 2 3 5 5 6 6 6 6 5 5
7 5 1 7 5 3 2 2 2 3 4 5 6 7 7 8 8 8 8 8 8 8 8 7 7 6 6 7 6 4 2 1 1 2 2 4 5 6 6 6 5 5 5 5
5 7 6 6 6 4 3 3 2 2 3 4 5 6 7 7 7 7 7 7 7 7 7 7 7 6 6 6 5 3 2 1 1 2 2 3 3 4 5 5 5 5 5 5
7 5 4 7 9 7 4 3 2 2 3 4 5 6 6 6 7 7 7 6 6 6 6 7 6 6 6 6 4 2 1 1 1 2 2 3 3 3 4 4 5 5 5 5
7 7 6 5 8 8 6 4 4 3 3 3 4 5 6 6 6 6 6 6 5 6 6 6 6 6 6 6 4 2 1 1 1 1 2 2 2 1 1 2 3 4 4 5
4 4 4 4 6 7 6 5 4 4 4 4 4 4 5 6 6 6 6 5 5 6 6 5 5 5 6 6 5 3 2 2 1 1 2 2 2 2 2 1 3 4 5 6
6 5 4 5 5 6 5 4 3 3 3 3 3 4 4 5 5 6 6 5 5 5 5 5 5 5 6 6 5 3 2 2 2 2 2 2 2 2 2 2 2 2 4 6
9 6 5 5 5 5 4 3 3 3 3 3 3 4 4 5 6 6 6 5 5 4 5 4 5 6 6 6 5 4 3 2 2 2 1 2 2 2 2 3 3 2 2 3
9 6 6 7 7 6 5 5 4 4 4 4 4 4 5 6 6 5 5 5 4 4 5 5 5 6 6 5 5 4 3 3 3 2 2 2 2 2 2 3 3 3 3 2
11 9 9 8 8 8 7 6 5 5 4 5 5 5 5 5 5 5 5 5 5 4 4 5 5 6 5 5 4 3 3 3 3 2 2 2 2 2 3 3 3 3 3 3
11 10 10 9 8 8 7 6 5 5 5 5 4 4 4 5 5 6 6 5 5 4 4 4 5 5 5 5 4 3 3 3 3 3 2 2 2 2 2 3 3 3 2 2
9 8 8 7 7 6 6 6 5 5 4 4 4 4 5 5 5 5 5 5 5 5 5 5 5 5 4 5 4 3 3 3 3 3 3 3 3 2 2 2 2 3 2 2
8 8 7 6 6 5 5 5 4 4 4 4 4 4 5 5 4 4 4 4 4 4 5 5 4 4 4 4 4 3 3 3 3 3 3 3 3 2 2 2 3 2 2 2
9 8 8 7 6 5 5 4 4 4 4 4 4 5 5 5 4 4 4 5 4 4 5 5 4 4 4 4 4 3 3 3 3 3 3 3 3 3 2 2 2 2 2 3
8 8 7 6 5 4 3 3 4 4 4 4 4 4 4 5 5 4 5 5 4 5 4 4 4 4 5 5 3 3 4 3 3 3 3 3 3 3 3 3 3 3 3 3
7 6 6 6 5 4 3 3 4 4 4 4 4 4 5 5 4 4 5 3 3 5 5 4 5 7 7 4 3 4 4 4 3 3 3 3 3 3 3 3 3 3 3 3
6 6 5 4 3 3 3 3 3 3 4 4 4 4 4 4 4 4 4 5 5 6 5 6 8 7 6 3 3 4 4 3 3 3 3 3 3 3 3 3 3 3 3 4
6 5 5 5 4 4 4 3 3 3 3 3 4 4 4 4 4 4 4 5 6 6 5 6 7 6 4 3 3 4 4 3 3 3 3 3 3 3 3 3 4 4 4 4
5 5 4 4 3 3 3 3 3 3 3 3 3 3 3 3 4 4 4 4 5 6 5 4 4 4 3 3 3 3 3 3 4 3 4 4 4 4 4 4 5 4 4 4
4 3 3 2 3 3 3 3 4 4 3 3 4 3 3 3 3 3 4 4 4 4 4 3 3 3 3 3 3 3 3 3 3 3 4 4 4 4 4 5 4 4 4 4
Wind_Direction
291 290 269 269 272 261 232 241 246 281 295 319 337 342 347 352 356 4 8 8 7 4 0 356 354 355 357 354 352 347 349 45 145 148 148 146 152 158 160 163 161 159 158 154
284 296 289 277 276 257 253 248 248 276 293 332 335 340 351 356 358 1 2 360 357 357 356 353 349 346 346 348 345 340 338 15 92 143 149 155 158 155 151 150 149 150 154 154
239 316 288 271 263 222 211 222 240 262 293 326 330 340 343 346 350 353 354 351 350 350 349 345 342 338 334 335 338 338 337 1 124 167 161 162 160 158 154 152 149 151 153 153
284 303 247 69 73 212 221 248 247 270 303 315 317 317 326 343 351 347 345 343 342 341 338 337 336 335 333 331 332 338 341 310 193 178 166 159 161 158 155 153 154 153 154 153
217 262 267 235 202 205 229 258 238 263 301 319 321 305 313 358 348 338 334 334 335 335 331 332 337 335 332 331 333 334 329 298 234 191 178 169 169 164 158 153 151 152 154 155
201 241 245 167 150 162 209 247 189 230 290 319 325 304 319 342 336 334 333 333 335 335 335 338 340 335 329 327 326 323 316 304 267 205 191 182 174 163 156 151 150 149 153 161
216 242 262 169 153 167 210 252 155 215 261 287 290 291 309 321 326 330 329 331 335 335 336 338 339 337 328 326 323 320 314 299 244 204 192 180 166 159 152 149 150 154 154 161
196 220 241 154 164 200 221 99 191 232 259 274 285 297 308 313 319 325 328 331 334 333 334 336 342 340 330 325 321 318 308 279 220 188 170 168 162 158 159 160 161 164 165 168
208 220 91 169 190 179 158 194 226 253 273 278 287 298 306 310 315 319 324 327 329 329 328 334 342 341 333 326 326 320 302 276 216 177 171 172 172 169 167 171 174 177 178 184
241 244 224 209 205 194 195 210 232 256 275 281 288 297 303 307 312 317 320 322 325 325 324 328 335 336 333 328 325 314 296 275 207 185 178 175 178 180 181 186 188 187 190 194
237 239 222 219 212 203 198 211 232 265 284 285 288 295 301 304 309 312 315 317 320 319 318 321 329 335 339 335 326 316 305 283 220 199 189 184 190 199 203 207 204 198 201 198
217 202 194 200 193 189 194 212 228 253 282 293 291 296 303 303 306 310 313 319 318 319 317 318 327 334 338 336 325 315 307 291 250 210 196 192 192 207 219 227 227 231 225 212
204 165 174 160 170 181 194 209 226 244 263 283 290 293 299 301 308 313 314 317 317 317 319 322 326 332 337 336 329 316 302 288 269 236 215 210 206 204 217 231 223 227 225 223
181 153 167 186 188 186 192 202 223 242 257 272 286 295 301 304 309 312 313 315 318 317 320 324 327 331 335 333 331 325 317 305 284 262 243 230 225 221 216 217 225 239 229 226
195 195 184 169 168 175 184 195 218 240 262 279 289 298 303 305 305 306 311 316 314 315 321 325 327 330 335 333 330 326 319 310 305 292 271 248 238 234 229 225 230 239 243 232
182 180 173 179 186 190 193 206 227 245 259 273 285 294 298 300 301 306 315 319 313 311 319 321 321 327 334 332 327 321 312 313 306 291 278 258 240 232 230 228 228 229 230 231
170 184 190 194 198 201 207 215 226 241 255 264 277 290 298 303 305 310 318 322 313 307 313 314 318 327 331 328 321 314 311 308 306 295 279 265 252 243 238 234 233 237 242 238
191 189 187 188 191 199 208 216 225 235 247 260 273 279 284 288 294 301 310 315 312 308 310 315 320 325 327 327 323 316 310 305 302 296 290 277 269 258 246 241 239 243 252 247
180 176 177 181 186 192 204 216 226 235 246 254 258 265 271 275 283 293 301 305 304 305 314 318 319 320 321 324 323 315 309 301 295 289 285 278 271 262 256 251 251 249 246 240
171 170 171 174 180 192 206 215 224 233 241 244 252 262 271 278 282 287 290 286 286 295 304 308 307 309 314 317 315 307 305 299 292 289 287 283 278 272 268 264 262 257 250 246
170 169 172 178 187 198 206 211 219 232 240 238 246 258 269 279 280 278 279 284 294 301 300 300 299 302 306 310 307 302 301 299 295 290 288 286 284 281 274 270 267 262 258 257
170 172 178 182 188 200 208 212 221 232 239 243 249 257 266 274 277 274 265 269 289 297 297 293 294 299 304 305 297 296 295 295 295 293 285 283 283 282 279 274 270 269 266 264
169 173 178 185 191 196 202 215 222 228 236 242 248 253 258 265 269 269 277 274 283 291 293 287 293 298 300 295 287 287 287 287 289 290 288 285 281 277 276 277 275 273 272 271
168 172 175 172 168 187 215 226 227 234 241 247 250 253 256 265 268 257 267 282 286 289 284 287 293 295 294 284 279 278 278 279 281 283 283 282 279 276 272 273 274 275 273 273
167 167 167 172 190 211 224 225 230 237 243 251 257 257 253 251 259 275 280 281 285 287 284 289 294 294 287 277 275 273 273 271 273 277 275 275 276 276 276 273 271 270 269 267
174 182 189 199 208 216 215 217 228 237 244 258 264 262 263 266 268 271 272 277 280 284 284 286 288 288 282 279 276 277 277 279 281 279 277 277 277 276 275 275 274 270 268 266
169 178 186 206 218 215 216 221 232 240 242 251 266 266 268 273 274 273 274 278 282 282 283 285 286 285 283 282 283 283 281 280 279 278 279 278 276 275 274 274 274 272 270 268
Height
1491 1490 1490 1488 1487 1486 1486 1483 1480 1478 1478 1478 1479 1478 1476 1474 1471 1468 1466 1463 1462 1460 1458 1457 1456 1455 1455 1455 1455 1455 1455 1455 1456 1457 1459 1461 1463 1465 1467 1469 1471 1474 1476 1479
1492 1491 1490 1488 1485 1484 1484 1483 1482 1480 1480 1481 1481 1479 1477 1474 1472 1469 1467 1465 1462 1460 1459 1457 1456 1455 1454 1454 1453 1453 1453 1453 1453 1455 1456 1458 1460 1462 1464 1466 1468 1470 1473 1475
1485 1490 1487 1482 1482 1483 1483 1483 1483 1481 1481 1481 1480 1479 1478 1475 1473 1471 1468 1466 1463 1461 1459 1457 1456 1454 1453 1453 1452 1451 1451 1451 1451 1452 1454 1455 1457 1459 1461 1462 1464 1467 1469 1472
1487 1488 1486 1480 1484 1484 1483 1483 1483 1482 1482 1482 1481 1479 1477 1476 1474 1471 1468 1466 1463 1461 1458 1456 1455 1453 1452 1451 1450 1449 1449 1449 1449 1450 1451 1453 1454 1456 1457 1459 1461 1463 1466 1468
1487 1483 1478 1481 1483 1484 1483 1481 1482 1482 1481 1481 1480 1477 1475 1474 1473 1471 1468 1465 1463 1460 1458 1455 1453 1452 1450 1449 1448 1447 1447 1447 1447 1448 1449 1450 1451 1453 1455 1456 1458 1461 1463 1465
1489 1484 1476 1474 1481 1483 1485 1479 1480 1481 1481 1480 1479 1475 1474 1473 1471 1469 1467 1464 1462 1459 1457 1454 1452 1450 1449 1448 1447 1446 1445 1445 1445 1445 1446 1448 1449 1451 1452 1454 1456 1458 1460 1462
1487 1483 1472 1477 1481 1483 1481 1475 1479 1479 1480 1480 1479 1477 1476 1472 1470 1467 1465 1462 1460 1457 1455 1453 1451 1449 1448 1446 1445 1445 1444 1443 1443 1444 1445 1446 1447 1449 1450 1451 1453 1455 1457 1459
1482 1481 1475 1477 1479 1478 1475 1477 1477 1478 1478 1478 1476 1475 1473 1470 1468 1465 1463 1460 1458 1455 1453 1451 1449 1448 1446 1445 1443 1443 1442 1442 1441 1442 1443 1444 1445 1446 1448 1449 1451 1453 1454 1456
1474 1471 1472 1473 1474 1475 1475 1475 1476 1476 1475 1475 1474 1472 1470 1468 1466 1463 1461 1458 1456 1454 1452 1450 1448 1446 1444 1443 1441 1441 1440 1440 1440 1440 1441 1442 1443 1444 1445 1447 1448 1449 1451 1453
1474 1469 1471 1472 1472 1472 1473 1473 1473 1473 1472 1472 1471 1469 1468 1465 1463 1461 1459 1457 1454 1452 1450 1448 1447 1445 1442 1441 1439 1438 1438 1438 1438 1438 1439 1440 1441 1442 1443 1444 1445 1446 1448 1449
1469 1467 1468 1468 1468 1469 1470 1470 1471 1470 1470 1469 1468 1466 1465 1463 1461 1459 1457 1455 1453 1451 1449 1447 1445 1443 1441 1439 1438 1437 1436 1436 1435 1436 1436 1437 1438 1439 1440 1441 1443 1444 1445 1446
1458 1459 1461 1462 1463 1465 1467 1467 1468 1468 1467 1466 1465 1463 1462 1460 1458 1456 1454 1452 1450 1448 1446 1444 1443 1441 1439 1438 1436 1435 1434 1433 1433 1433 1434 1434 1435 1436 1437 1438 1439 1440 1441 1442
1455 1455 1458 1459 1461 1462 1464 1464 1465 1465 1464 1463 1462 1460 1459 1457 1456 1454 1452 1450 1448 1446 1444 1442 1440 1439 1437 1436 1434 1433 1432 1432 1431 1431 1431 1432 1432 1433 1433 1435 1436 1436 1437 1438
1452 1454 1456 1457 1458 1460 1461 1462 1462 1462 1461 1460 1459 1458 1456 1455 1453 1451 1449 1448 1446 1444 1442 1440 1438 1437 1435 1434 1432 1431 1430 1429 1429 1429 1429 1429 1429 1430 1430 1431 1431 1432 1433 1434
1449 1451 1453 1454 1456 1457 1458 1459 1459 1459 1458 1457 1456 1455 1454 1452 1450 1449 1447 1445 1443 1441 1439 1437 1436 1434 1433 1431 1430 1429 1428 1427 1426 1426 1426 1426 1426 1426 1427 1428 1428 1429 1429 1430
1444 1447 1449 1451 1452 1454 1455 1455 1456 1455 1455 1454 1453 1452 1451 1449 1448 1446 1444 1442 1440 1438 1437 1435 1433 1432 1430 1429 1428 1426 1425 1424 1424 1423 1423 1423 1423 1423 1424 1424 1424 1425 1425 1426
1440 1442 1445 1447 1449 1450 1451 1452 1452 1452 1452 1451 1450 1449 1448 1446 1445 1443 1441 1439 1438 1436 1434 1433 1431 1429 1428 1426 1425 1424 1423 1422 1421 1421 1420 1420 1420 1420 1420 1420 1421 1421 1421 1422
1436 1438 1441 1443 1445 1446 1448 1448 1449 1449 1448 1448 1447 1446 1444 1443 1441 1440 1438 1437 1435 1433 1432 1430 1428 1427 1425 1424 1422 1421 1420 1419 1418 1417 1417 1417 1417 1417 1417 1416 1417 1417 1417 1418
1433 1436 1438 1440 1442 1443 1444 1445 1445 1445 1445 1444 1443 1442 1441 1440 1438 1437 1435 1434 1432 1430 1429 1427 1426 1424 1422 1421 1419 1418 1417 1416 1415 1415 1414 1414 1413 1413 1413 1413 1413 1413 1413 1413
1431 1434 1436 1438 1439 1440 1441 1441 1441 1441 1441 1441 1440 1439 1438 1436 1435 1433 1432 1431 1429 1428 1426 1424 1423 1421 1420 1418 1417 1415 1414 1413 1412 1411 1411 1410 1409 1409 1409 1409 1408 1408 1409 1409
1428 1431 1433 1435 1436 1437 1438 1438 1438 1438 1438 1437 1436 1435 1434 1433 1432 1430 1428 1427 1426 1424 1423 1421 1420 1418 1417 1415 1414 1412 1411 1410 1409 1408 1407 1407 1406 1405 1405 1405 1404 1404 1404 1404
1426 1429 1431 1432 1433 1434 1434 1434 1434 1434 1434 1433 1432 1431 1430 1429 1428 1426 1425 1424 1422 1421 1419 1418 1416 1415 1414 1412 1411 1409 1408 1407 1406 1405 1404 1403 1402 1402 1401 1401 1400 1400 1400 1400
1424 1427 1428 1430 1430 1431 1431 1431 1431 1430 1430 1429 1428 1427 1426 1425 1424 1423 1421 1420 1419 1417 1416 1414 1413 1412 1410 1409 1407 1406 1405 1404 1403 1402 1401 1400 1399 1398 1398 1397 1397 1396 1396 1396
1423 1424 1426 1427 1427 1428 1428 1428 1428 1427 1426 1426 1425 1424 1423 1421 1420 1419 1418 1416 1415 1413 1412 1410 1409 1408 1406 1405 1404 1403 1401 1400 1399 1398 1398 1397 1396 1395 1394 1394 1393 1393 1392 1392
1420 1422 1423 1424 1424 1424 1425 1424 1424 1423 1423 1422 1421 1420 1419 1418 1417 1415 1414 1412 1411 1409 1407 1406 1405 1404 1402 1401 1400 1399 1398 1397 1396 1395 1394 1393 1393 1392 1391 1390 1390 1389 1389 1388
1418 1419 1420 1421 1421 1421 1421 1421 1420 1420 1419 1418 1417 1416 1415 1414 1413 1411 1410 1408 1406 1405 1403 1402 1401 1400 1398 1397 1396 1395 1394 1393 1392 1391 1391 1390 1389 1388 1388 1387 1386 1385 1385 1384
1415 1416 1416 1417 1417 1417 1417 1417 1416 1416 1415 1414 1413 1412 1411 1410 1409 1407 1406 1404 1403 1401 1400 1398 1397 1396 1395 1393 1392 1391 1390 1390 1389 1388 1387 1386 1385 1384 1384 1383 1382 1382 1381 1380